This is the latest recevied weather packets stored in our database for station/object OE9SAU-10. If no packets are shown the sender has not sent any weather packets the latest 10 day(s).
| Time | Temp. | Humidity | Pressure | Rain* | Wind** | Luminosity | Snow |
|---|---|---|---|---|---|---|---|
| 1777635196 | 20.56° C | 35% | 1027.5 hPa | - | - | - | - |
| 1777634296 | 20.56° C | 37% | 1027.7 hPa | - | - | - | - |
| 1777633396 | 20° C | 36% | 1027.9 hPa | - | - | - | - |
| 1777632496 | 19.44° C | 36% | 1028.1 hPa | - | - | - | - |
| 1777631596 | 19.44° C | 39% | 1028.1 hPa | - | - | - | - |
| 1777630696 | 18.33° C | 39% | 1028.2 hPa | - | - | - | - |
| 1777629796 | 18.33° C | 40% | 1028.3 hPa | - | - | - | - |
| 1777628896 | 17.22° C | 40% | 1028.3 hPa | - | - | - | - |
| 1777627996 | 16.67° C | 40% | 1028.4 hPa | - | - | - | - |
| 1777627096 | 16.11° C | 40% | 1028.4 hPa | - | - | - | - |
| 1777626196 | 15.56° C | 41% | 1028.5 hPa | - | - | - | - |
| 1777625296 | 15.56° C | 42% | 1028.5 hPa | - | - | - | - |
| 1777624396 | 15° C | 42% | 1028.6 hPa | - | - | - | - |
| 1777623495 | 14.44° C | 43% | 1028.6 hPa | - | - | - | - |
| 1777622595 | 13.89° C | 44% | 1028.6 hPa | - | - | - | - |
| 1777621695 | 13.33° C | 45% | 1028.7 hPa | - | - | - | - |
| 1777620795 | 12.78° C | 46% | 1028.7 hPa | - | - | - | - |
| 1777619894 | 12.22° C | 50% | 1028.5 hPa | - | - | - | - |
| 1777618994 | 11.67° C | 50% | 1028.5 hPa | - | - | - | - |
| 1777618094 | 10.56° C | 46% | 1028.7 hPa | - | - | - | - |
| 1777617194 | 10° C | 50% | 1028.6 hPa | - | - | - | - |
| 1777616294 | 9.44° C | 49% | 1028.5 hPa | - | - | - | - |
| 1777615394 | 8.89° C | 47% | 1028.5 hPa | - | - | - | - |
| 1777614494 | 8.89° C | 45% | 1028.5 hPa | - | - | - | - |
| 1777613594 | 8.89° C | 44% | 1028.2 hPa | - | - | - | - |
* Rain since midnight (hover to see other rain measurements)
** Current wind speed in m/s (hover to see current wind gust speed)